This demonstration page uses our WeatherBlox Daily Observations layout. Learn more.

Left ArrowRight Arrow

34.74481, -87.66753

Hourly Observations for February 3, 2020

Temp ( °F °C ) Dew Point ( °F °C ) Humidity (%) Winds ( mph kmh ) Pressure ( in mb ) Visibility ( mi km ) Precip ( " mm )
12:53 am 00:53 Clear 55 12.8 36 2.2 49 49 SSW 6 9 29.95 1014 10 16 0.00 0.00
1:53 am 01:53 Clear 55 12.8 38 3.3 53 53 SW 9 15 29.95 1014 10 16 0.00 0.00
2:53 am 02:53 Clear 53 11.7 38 3.3 57 57 SW 8 13 29.95 1014 10 16 0.00 0.00
3:53 am 03:53 Clear 55 12.8 38 3.3 53 53 SW 9 15 29.96 1015 10 16 0.00 0.00
4:53 am 04:53 Clear 55 12.8 38 3.3 53 53 SW 8 13 29.97 1015 10 16 0.00 0.00
5:53 am 05:53 Clear 50 10 38 3.3 63 63 SSE 5 7 29.98 1015 10 16 0.00 0.00
6:53 am 06:53 Sunny 48 8.9 38 3.3 68 68 SSE 6 9 30.00 1016 10 16 0.00 0.00
7:53 am 07:53 Sunny 52 11.1 41 5 66 66 SSE 5 7 30.01 1016 10 16 0.00 0.00
8:53 am 08:53 Sunny 59 15 41 5 51 51 SSW 10 17 30.03 1017 10 16 0.00 0.00
9:53 am 09:53 Sunny 64 17.8 41 5 43 43 SW 10 17 30.02 1017 10 16 0.00 0.00
10:53 am 10:53 Sunny 67 19.4 37 2.8 33 33 WSW 9 15 30.02 1017 10 16 0.00 0.00
11:53 am 11:53 Sunny 69 20.6 39 3.9 33 33 WSW 13 20 30.00 1016 10 16 0.00 0.00
12:53 pm 12:53 Sunny 72 22.2 39 3.9 30 30 SW 15 24 29.95 1014 10 16 0.00 0.00
1:53 pm 13:53 Sunny 73 22.8 40 4.4 30 30 SSW 12 19 29.92 1013 10 16 0.00 0.00
2:53 pm 14:53 Sunny 73 22.8 39 3.9 29 29 SSW 14 22 29.91 1013 10 16 0.00 0.00
3:53 pm 15:53 Sunny 72 22.2 40 4.4 31 31 SSW 18 30 29.91 1013 10 16 0.00 0.00
4:53 pm 16:53 Sunny 69 20.6 43 6.1 39 39 S 13 20 29.91 1013 10 16 0.00 0.00
5:53 pm 17:53 Clear 68 20 45 7.2 44 44 S 10 17 29.92 1013 10 16 0.00 0.00
6:53 pm 18:53 Mostly Clear 67 19.4 46 7.8 47 47 S 8 13 29.92 1013 10 16 0.00 0.00
7:53 pm 19:53 Mostly Clear 66 18.9 47 8.3 50 50 SSW 9 15 29.94 1014 10 16 0.00 0.00
8:53 pm 20:53 Clear 67 19.4 47 8.3 49 49 S 12 19 29.93 1014 10 16 0.00 0.00
9:53 pm 21:53 Clear 67 19.4 47 8.3 49 49 SSW 16 26 29.93 1013 10 16 0.00 0.00
10:53 pm 22:53 Clear 66 18.9 47 8.3 50 50 SSW 17 28 29.94 1014 10 16 0.00 0.00
11:53 pm 23:53 Mostly Cloudy 65 18.3 48 8.9 54 54 SSW 18 30 29.95 1014 10 16 0.00 0.00

Powered by AerisWeather